www.pogodaiklimat.ru
ПОГОДА в Боулинг-Грине
Время
и дата
20:53 13.07
21:53 13.07
22:53 13.07
23:53 13.07
00:53 14.07
01:53 14.07
02:53 14.07
03:53 14.07
04:53 14.07
05:53 14.07
06:53 14.07
07:53 14.07
08:53 14.07
09:53 14.07
10:53 14.07
11:53 14.07
12:53 14.07
13:53 14.07
14:53 14.07
15:53 14.07
16:53 14.07
17:53 14.07
18:53 14.07
19:53 14.07
20:53 14.07
21:53 14.07
22:53 14.07
23:53 14.07
00:53 15.07
01:53 15.07
02:53 15.07
03:53 15.07
04:53 15.07
05:53 15.07
06:53 15.07
07:53 15.07
08:53 15.07
09:53 15.07
10:53 15.07
11:53 15.07
12:53 15.07
13:53 15.07
14:53 15.07
15:53 15.07
16:53 15.07
17:53 15.07
18:53 15.07
19:53 15.07
Ветер
(напр.,м/с)
Видим. Явления Облачность Т
(С)
Тd
(С)
f
(%)
Тe
(С)
Тes
(С)
Комфортность P
(гПа)
Po
(гПа)
Тmin
(С)
Tmax
(С)
R
(мм)
R24
(мм)
S
(см)
штиль 0 16 км ясно +27.2 +21.7 72 +35 +35 очень
душно
1020.7 1001.1
штиль 0 16 км ясно +26.7 +22.2 76 +35 +35 очень
душно
1020.9 1001.5
штиль 0 16 км ясно +26.1 +21.7 77 +34 +34 очень
душно
1020.7 1001.5
штиль 0 16 км ясно +25.0 +21.7 82 +32 +32 очень
душно
1020.6 1001.1 +25.0 +32.8
штиль 0 16 км ясно +24.4 +21.7 85 +31 +31 очень
душно
1019.9 1000.5
штиль 0 16 км ясно +23.3 +21.1 87 +31 +31 очень
душно
1019.2 999.8
штиль 0 13 км ясно +22.8 +21.1 90 +30 +30 очень
душно
1019.6 1000.2
штиль 0 13 км ясно +22.8 +21.1 90 +30 +30 очень
душно
1019.7 1000.2
штиль 0 11 км ясно +22.2 +20.6 91 +29 +29 очень
душно
1020.0 1000.5
штиль 0 11 км ясно +23.9 +21.7 88 +31 +31 очень
душно
1020.3 1000.8 +22.2 +25.6
ЮВ 2 16 км ясно +26.1 +22.8 82 +35 +36 очень
душно
1020.6 1001.1
Ю 3 16 км ясно +29.4 +21.7 63 +37 +41 очень
душно
1020.6 1001.1
ЮЗ 2 16 км ясно +31.1 +21.7 57 +39 +48 очень
душно
1020.3 1000.8
нст 2 16 км ясно +32.2 +21.7 54 +41 +54 опасность
перегрева
1020.1 1000.8
З 2 16 км 2/2 1380 м +32.8 +21.1 50 +40 +54 опасность
солнечного
удара
1019.9 1000.5
нст 3 16 км ясно +33.9 +21.7 49 +42 +59 опасность
перегрева
1019.2 999.8 +23.9 +33.9
ЮЗ 5 16 км 2/2 1650 м +33.9 +21.1 47 +41 +50 опасность
перегрева
1018.1 998.8
З 4 16 км 8/8 1800 м +34.4 +20.6 45 +41 +44 очень
душно
1017.9 998.5
З 4 16 км 8/8 1500 м +34.4 +21.7 48 +43 +45 очень
душно
1017.2 997.8
З 4 16 км ясно +34.4 +20.6 45 +41 +49 опасность
перегрева
1017.1 997.8
З 3 16 км ясно +32.8 +20.0 47 +39 +45 очень
душно
1016.7 997.5
ЮЗ 3 16 км ясно +32.2 +20.6 50 +39 +42 очень
душно
1016.1 996.8 +32.2 +35.0
ЮЗ 2 16 км ясно +32.2 +20.6 50 +39 +40 очень
душно
1016.2 996.8
штиль 0 16 км ясно +29.4 +21.7 63 +37 +37 очень
душно
1016.1 996.8
штиль 0 16 км ясно +27.8 +22.2 72 +36 +36 очень
душно
1016.4 997.2
штиль 0 16 км ясно +26.7 +22.8 79 +35 +35 очень
душно
1016.5 997.2
штиль 0 16 км ясно +26.7 +22.8 79 +35 +35 очень
душно
1016.3 996.8
ЮЗ 3 16 км ясно +26.7 +22.2 76 +35 +35 очень
душно
1016.3 997.2 +26.1 +32.8
З 2 16 км ясно +26.1 +21.7 77 +34 +34 очень
душно
1016.2 996.8
штиль 0 16 км ясно +26.1 +22.2 79 +34 +34 очень
душно
1015.8 996.5
Ю 3 16 км ясно +26.1 +22.2 79 +34 +34 очень
душно
1015.6 996.5
нст 2 16 км ясно +25.0 +21.7 82 +32 +32 очень
душно
1015.8 996.5
штиль 0 16 км ясно +24.4 +21.7 85 +31 +31 очень
душно
1016.2 996.8
ЮЗ 2 16 км ясно +25.6 +22.2 82 +33 +33 очень
душно
1016.9 997.5 +24.4 +27.2
ЮЗ 3 16 км ясно +27.2 +22.8 77 +36 +37 очень
душно
1016.9 997.5
ЮЗ 2 16 км ясно +28.9 +22.8 70 +38 +43 очень
душно
1016.9 997.5
Ю 4 16 км ясно +30.6 +23.3 65 +41 +47 опасность
перегрева
1016.1 996.8
Ю 5 16 км 2/2 930 м +32.2 +23.3 59 +43 +48 опасность
перегрева
1015.5 996.2
ЮЗ 5 16 км ясно +32.8 +22.8 56 +43 +52 опасность
перегрева
1015.4 996.2
ЮЗ 6
{10}
16 км ясно +33.9 +22.2 51 +43 +51 опасность
перегрева
1015.0 995.8 +25.6 +33.9
ЮЗ 5 16 км 2/2 1410 м +34.4 +22.2 49 +43 +52 опасность
перегрева
1014.3 995.2
ЮЗ 5
{9}
16 км 5/5 1500 м +34.4 +21.7 48 +43 +48 опасность
перегрева
1013.7 994.5
ЮЗ 6
{7}
16 км 8/8 1500 м +33.9 +21.7 49 +42 +43 очень
душно
1012.7 993.5
ЮЗ 3 16 км 2/2 1500 м +33.9 +21.7 49 +42 +50 опасность
перегрева
1012.5 993.2
З 3 16 км 2/2 1500 м +33.9 +22.2 51 +43 +48 опасность
перегрева
1012.2 992.8
З 4 16 км ясно +32.8 +22.2 54 +42 +44 опасность
перегрева
1012.0 992.8 +32.8 +35.0
З 3 16 км ясно +31.7 +21.7 55 +40 +40 очень
душно
1012.3 993.2
ЮЗ 2 16 км ясно +30.6 +22.2 61 +40 +40 очень
душно
1012.3 993.2
Местоположение метеостанции Bowling Green-Warren County Regional Airport: широта 36.9644 долгота -86.4194 высота над уровнем моря 167 м.
В архиве по умолчанию представлена погода в Боулинг-Грине за последние 1-2 суток. Обновление информации о фактической погоде в базе происходит ежечасно! Архивные данные за месяц целиком и за предыдущие месяцы Вы можете получить, выбрав интересующий диапазон дат из раскрывающегося списка и нажав кнопку "Ввод!".
Внимание! Архив погоды МЕТАР в базе сайта по станциям, не включенным в климатический монитор, хранится не более 60 дней. Нет смысла пытаться выбрать более раннюю дату.
*Определитесь, кто Вы:
Внимание! Время в таблицах - местное (без учета летнего времени). Для получения всемирного времени необходимо вычесть поправку, которая равна -6 ч.
Смотрите также архив погоды в соседних городах и на ближайших метеорологических станциях:
Партнеры нашего сайта:      
Пояснения к столбцам:
  • Ветер - указаны скорость ветра в м/с - средняя за 10 мин, порывы в срок и между сроками (в фигурных скобках) и направление, откуда дует ветер: С - северный,
  • СВ - северо-восточный, В - восточный, ЮВ - юго-восточный, Ю - южный, ЮЗ - юго-западный, З - западный, СЗ - северо-западный.
  • Видимость - горизонтальная дальность видимости в метрах или километрах. При видимости от 1 до 10 км при отсутствии осадков обычно наблюдается дымка, при ухудшении видимости до 1 км и менее - туман. В сухую погоду видимость может ухудшаться дымом, пылью или мглою.
  • Явления - указаны атмосферные явления, наблюдавшиеся в срок или в последний час перед сроком; фигурными скобками обозначены явления, наблюдавшиеся между сроками (за 1-3 часа до срока); квадратными скобками обозначены град или гололедные отложения с указанием их диаметра в мм.
  • Облачность - указаны через наклонную черту общая и нижняя облачность в баллах и высота нижней границы облаков в метрах; квадратными скобками обозначены формы облаков: Ci - перистые, Cs - перисто-слоистые, Cc - перисто-кучевые, Ac - высококучевые, As - высокослоистые, Sc - слоисто-кучевые, Ns - слоисто-дождевые, Cu - кучевые, Cb - кучево-дождевые. Подробнее классификацию облаков см. в Атласе облаков (PDF).
  • T - Температура воздуха - температура, измеренная на высоте 2 м над землей.
  • Td - Температура точки росы - температура, при понижении до которой содержащийся в воздухе водяной пар достигнет насыщения.
  • f - Относительная влажность воздуха - влажноcть воздуха, измеренная на высоте 2 м над землей.
  • Te - Эффективная температура - температура, которую ощущает одетый по сезону человек в тени. Характеристика душности погоды. При расчете учитывается влияние влажности воздуха и скорости ветра на теплоощущения человека.
  • Tes - Эффективная температура на солнце - температура, которую ощущает человек, с поправкой на солнечный нагрев. Характеристика знойности погоды. Зависит от высоты солнца над горизонтом, облачности и скорости ветра. Ночью, в пасмурную погоду, а также при ветре 12 м/с и более поправка равна нулю.
  • P - Атмосферное давление - приведенное к уровню моря атмосферное давление.
  • Po - Атмосферное давление - измеренное на уровне метеостанции атмосферное давление.
  • Tmin - Минимальная температура - минимум температуры воздуха на высоте 2 м над землей.
  • Tmax - Максимальная температура - максимум температуры воздуха на высоте 2 м над землей.
  • R - Количество осадков - Количество выпавших осадков за период времени, мм. При наведении курсора мыши на число - период времени, за который выпало указанное количество осадков.
  • R24 - Количество осадков - Количество выпавших осадков за 24 часа, мм.
  • S - Снежный покров - Высота снежного покрова, см. При наведении курсора мыши на число - состояние снежного покрова и степень покрытия местности в баллах.